Orbital Elements at Epoch 2459000.5 (2020-May-31.0) TDB
Reference: JPL 6 (heliocentric ecliptic J2000)
Element | Value | Uncertainty (1-sigma) | Units |
e | .2154793104800377 | 4.2694e-08 | |
a | 2.327623090751128 | 1.3154e-08 | au |
q | 1.826068472098661 | 1.0222e-07 | au |
i | 5.434913889418069 | 9.8919e-06 | deg |
node | 321.0116602125291 | 5.2695e-05 | deg |
peri | 93.30665389539119 | 5.9993e-05 | deg |
M | 216.284415138205 | 2.9002e-05 | deg |
tp | 2459518.308026415390 (2021-Oct-30.80802642) | 0.00010762 | TDB |
period | 1297.081939226031 3.55 | 1.0996e-05 3.011e-08 | d yr |
n | .2775460740859688 | 2.3528e-09 | deg/d |
Q | 2.829177709403595 | 1.5989e-08 | au |
|
| | Orbit Determination Parameters
Additional Information
|